Showing default

TECHEDSAT-11, 60208

Orbit data source: Space-Track

TECHEDSAT-11, 60208 is an American payload satellite in SSO that was launched on Thu, 04 Jul 2024 UTC via an FIREFLY ALPHA launch vehicle from the Air Force Western Test Range (AFWTR). Payload-class satellites include a variety of spacecraft equipped with specific instruments for various scientific and technological missions. These include communications satellites like Starlink; space stations such as the ISS; scientific satellites like the Hubble; Earth observation satellites from companies like Planet Labs, Umbra, and HawkEye 360; GPS; miniature CubeSats for education and research; and military/defense satellites.

Loading next visibility...
Identifier
60208, 2024-125F
Orbit
SSO
Country
Flag of USUS
Related business
Manufacturer
ARC
Mission
Operational Civil Technology
Bus & Motor
CUBESAT 6UXL, Unknown motor
Mass
10 kg wet, ~10 kg dry
Launch date (UTC)
2024-07-04 (1 year ago)
Launch vehicle
FIREFLY ALPHA
Launch site
Air Force Western Test Range (AFWTR)
Object type
Payload
Rocket body
Debris
Shape & HBR
Box + 1 Sail, 1.0 m
Radar Cross Section
0.045 m², Small (<0.1 m²)

Expand to show TLE details & history
Last TLE update: 15 hours ago

TLE from 15 hours ago
0 TECHEDSAT-11
1 60208U 24125F   25293.84051012  .00023179  00000-0  64461-3 0  9998
2 60208  97.2626 142.8876 0019886  20.6275 339.5767 15.36646114 72354
Epoch: 2025-10-20T20:10Z
TLE epoch observation values (Epoch: 2025-10-20T20:10:20.074Z)
Latitude
-0.00011°
Longitude
170.76692°
Altitude
446.417 km
Speed
7.651 km/s
True Right ascension
09h 31m 33s
True Declination
0° 00' 00"
Sunlit
Object was in daylight at epoch
Visualization orbit readout
Latitude
Unknown
Longitude
Unknown
Altitude
Unknown
Speed
Unknown
Apparent Right ascension
Unknown
Apparent Declination
Unknown
Sunlit
N/A
Visualization observer readout
Local Sidereal Time
06:07:18
Azimuth
Unknown
Elevation
Unknown
Doppler factor
Unknown
Orbital elements
Apogee altitude
466.557 km
Perigee altitude
439.389 km
Semi-major axis
6,831.11 km
Eccentricity
0.00199
Inclination
97.2626°
RAAN
142.8876°
Arg. of periapsis
20.6275°
True anomaly
339.497°
Mean anomaly
339.5767°
Eccentric anomaly
339.53687°
Mean motion
3.8442 °/min
Orbital period
93.65 mins
BSTAR
0.00064461
Loading maneuver chart data...
Computing Atmospheric mass density...
Loading historical data...
Loading historical data...
Loading historical data...
Loading historical data...
Loading historical data...
Loading historical data...
Loading historical data...

Documentation

Showing up to 5 results
|